Location: Malvern Link
(52.1333°N, 2.3000°W)
Time: 15:55:52
(UTC+00:00)

SO-50 - Pass Details

Date: 04 July 2022
Orbit: 585 x 698 km, 64.6° (Epoch: 11 August)

Event Time Altitude Azimuth Distance (km) Brightness Sun altitude
Exits shadow 22:40:12 16° 136° (SE) 1,715 ? -12.3°
Maximum altitude 22:41:44 18° 112° (ESE) 1,606 ? -12.4°
Drops below altitude 10° 22:45:00 10° 69° (ENE) 2,122 ? -12.6°
Sets 22:47:58 0° 52° (NE) 3,060 ? -12.7°
